Regional Weather Roundup
Issued by NWS Boston, MA

Current Version | Previous Version | Text Only | Print | Product List | Glossary Off
Versions: 1 2 3 4 5 6 7 8 9 10 11 12 13 14 15 16 17 18 19 20 21 22 23 24 25 26 27 28 29 30 31 32 33 34 35 36 37 38 39 40 41 42 43 44 45 46 47 48 49 50
000 ASUS41 KBOX 201510 RWRBOX REGIONAL WEATHER ROUNDUP NATIONAL WEATHER SERVICE TAUNTON MA 1000 AM EST TUE FEB 20 2018 NOTE: "FAIR" INDICATES FEW OR NO CLOUDS BELOW 12,000 FEET WITH NO SIGNIFICANT WEATHER AND/OR OBSTRUCTIONS TO VISIBILITY. MAZALL-201600- EASTERN MASSACHUSETTS CITY SKY/WX TMP DP RH WIND PRES REMARKS BOSTON PTSUNNY 56 51 84 SW9 30.24F BEVERLY PTSUNNY 55 51 86 SW9 30.23F LAWRENCE CLOUDY 57 50 77 SW8 30.24F BEDFORD PTSUNNY 55 50 83 SW9 30.23F BLUE HILL N/A N/A N/A N/A SW12G20 30.24S NORWOOD FAIR 59 52 77 SW10 30.25F MARSHFIELD FAIR 59 54 82 SW14G25 30.24F PLYMOUTH CLOUDY 55 52 89 SW16G24 30.28S TAUNTON CLOUDY 53 51 93 SW7G18 30.28S NEW BEDFORD CLOUDY 52 52 100 SW13 30.29S $$ MAZALL-201600- CAPE COD AND THE ISLANDS CITY SKY/WX TMP DP RH WIND PRES REMARKS FALMOUTH FOG 48 48 100 SW15 30.33 VSB 1/4 HYANNIS FOG 52 52 100 SW16G26 30.29S VSB 1 CHATHAM FOG 46 46 100 SW13G24 30.31F VSB 1/2 PROVINCETOWN CLOUDY 46 46 100 SW16 30.28S FOG NANTUCKET FOG 47 47 100 SW15 30.35S VSB 1/4 MARTHAS VNYRD FOG 48 48 100 SW15 30.33S VSB 1/2 $$ MAZALL-201600- CENTRAL AND WESTERN MASSACHUSETTS CITY SKY/WX TMP DP RH WIND PRES REMARKS WORCESTER FAIR 52 49 89 SW13 30.25S FITCHBURG FAIR 56 50 80 W12 30.24F ORANGE CLOUDY 46 46 100 S7 30.26S FOG SPRINGFIELD PTSUNNY 50 48 93 S10 30.26 WESTFIELD CLOUDY 50 48 93 S7 30.26F NORTH ADAMS CLOUDY 51 46 83 E10 30.23S PITTSFIELD CLOUDY 48 45 89 NE3 30.23S FOG $$ RIZALL-201600- RHODE ISLAND CITY SKY/WX TMP DP RH WIND PRES REMARKS PROVIDENCE CLOUDY 54 53 97 SW12 30.29F NEWPORT FOG 48 48 100 SW9 30.30F VSB 3/4 BLOCK ISLAND LGT RAIN 45 45 100 SW13 30.35R VSB 1/2 SMITHFIELD CLOUDY 54 51 90 SW7 30.27F WESTERLY FOG 48 48 100 SW8 30.33S VSB 1/4 $$ CTZALL-201600- CONNECTICUT CITY SKY/WX TMP DP RH WIND PRES REMARKS BRADLEY INTL PTSUNNY 51 47 86 S13 30.28S HARTFORD CLOUDY 52 49 89 SW8 30.30S BRIDGEPORT CLOUDY 49 48 97 SW9 30.32S FOG DANBURY CLOUDY N/A N/A N/A W12 30.32S GROTON FOG 47 46 97 SW3 30.32F VSB 1/4 NEW HAVEN FOG 49 48 97 SW6 30.32S VSB 1 CHESTER FOG 52 52 100 SW10G20 30.30F VSB 1/4 MERIDEN CLOUDY 50 49 96 SW6 30.31S WILLIMANTIC CLOUDY 53 50 89 SW8 30.30S OXFORD FOG 48 48 100 W6 30.31S VSB 1/2 $$ MEZ002-015-021-024-NHZ003-005-008-011-012-014-VTZ005-008-201600- NORTHERN NEW ENGLAND CITY SKY/WX TMP DP RH WIND PRES REMARKS PORTLAND ME CLOUDY 41 41 100 NE3 30.25F FOG BANGOR ME LGT RAIN 38 38 100 N5 30.28S CONCORD NH CLOUDY 46 44 93 CALM 30.23S FOG MANCHESTER NH PTSUNNY 52 48 86 S7 30.21F NASHUA NH PTSUNNY 53 50 89 VRB3 30.23S PORTSMOUTH NH CLOUDY 49 48 99 N3 30.22S JAFFREY NH FOG 46 46 100 SW8 30.24S VSB 1/4 KEENE NH FOG 45 45 100 CALM 30.25S VSB 1 BURLINGTON VT LGT RAIN 49 45 86 S16G24 30.13S MT. WASHINGTON LGT RAIN 41 41 100 W47G58 N/A VSB 1/16WCI 27 $$ NYZ052-076-201600- EASTERN NEW YORK CITY SKY/WX TMP DP RH WIND PRES REMARKS ALBANY PTSUNNY 49 43 80 S15 30.23F NEW YORK CITY CLOUDY 54 51 90 SW12G21 30.33S FOG $$ ANZALL-201600- MARINE OBSERVATIONS STATION/POSITION TIME TEMP WIND PRES VSBY WAVE AIR SEA DIR/SP/G HT/PER (UTC) (F) (DEG/KT/KT) (MB) (MI) (FT/S) BOSTON BUOY 1450 44 40 140/ 4/ 4 1023.8S 3/11 BUZZARDS BAY 1400 43 220/ 15/ 17 1026.9S NANTUCKET SOUND 1450 43 38 230/ 16/ 17 1026.9R 2/ 3 MASS BAY-STELLWA 1404 44 39 1023.0F 5/11 ISLE OF SHOALS 1500 47 30/ 8/ 9 1023.5F S OF BLOCK IS 1443 40 N/A 5/ 6 $$ ......................KEY......................... SKY/WX - SKY CONDITION/PRESENT WEATHER TMP - TEMPERATURE IN FAHRENHEIT DWPT - DEWPOINT IN FAHRENHEIT RH - RELATIVE HUMIDITY IN PERCENT WIND - DIRECTION AND SPEED IN MPH PRES - MEAN SEA LEVEL PRESSURE IN INCHES OF HG WCI - WIND CHILL INDEX VSB - VISIBILITY IN MILES HX - HEAT INDEX TC - TEMPERATURE IN CELSIUS VRB - VARIABLE WIND DIRECTION N/A - NOT AVAILABLE

USA.gov is the U.S. government's official web portal to all federal, state and local government web resources and services.